Kezdőlap
METAR-TAF:

METAR-TAF

Repülőterek :

Békéscsabai repülőtér

Békéscsaba, Magyarország

földrajzi szélesség: 46-41-00N, földrajzi hosszúság: 021-09-45E, magasság: 86 m

Jelenlegi meteorológiai megfigyelések

A jelentés 10 órával és 19 perccel ezelõtt készült, 17:45 UTC
Észak-északkeleti szél 5 kt
Hőmérséklet -2°C
Páratartalom 100%
Légköri nyomás 1009 hPa
Látótávolság: 1600 m
Borult 5000 lábon
enyhe havazás

METAR: LHBC 221745Z 03005KT 1600 -SN OVC050 M02/M02 Q1009

Idő: 05:04 (04:04 UTC)


TAF: hiányzik

Meteorológiai megfigyelések és előrejelzések több, mint 4000 repülőtéren (METAR és TAF jelentéseket).

A térképen piros és sárga pontok jelzik az elérhető meteorológiai állomásokat.

Mozgassa az egeret a pont fölött, hogy megjelenjen az állomás neve.

Azután kattintson az időjárási megfigyelések és előrejelzések megtekintéséhez.

A térkép megváltoztatása: kattintson a fekete keresztel jelölt zöld gombra ráközelítéshez, a vonallal jelölt zöld gombra távolításhoz, vagy a zöld nyilakra a szomszédos térképek eléréséhez.


METAR-TAF: